GW5072 Weather Reports


time (UTC)temp
F
wind
direction
speed
knots
gust
knots
rain 1hr
in
rain 24hr
in
rain mn
in
humidity
%
barometer
mb
20260905212011 93 67 0.0 0.0 0.00 0.01 0.01 58 1011.9
20260905211519 93 66 0.0 0.0 0.00 0.01 0.01 60 1011.8
20260905211015 94 66 0.0 0.0 0.00 0.01 0.01 55 1011.9
20260905210512 94 66 0.0 0.0 0.00 0.01 0.01 56 1011.9
20260905210033 95 66 0.0 0.9 0.00 0.01 0.01 56 1011.9
20260905205517 95 63 0.0 0.9 0.00 0.01 0.01 54 1012.0
20260905205013 96 318 0.0 3.5 0.00 0.01 0.01 53 1011.8
20260905204532 96 360 0.0 3.5 0.00 0.01 0.01 54 1011.8
20260905204014 96 338 0.0 1.7 0.00 0.01 0.01 54 1011.8
20260905203515 96 3 0.0 0.0 0.00 0.01 0.01 56 1011.9
20260905203034 97 354 0.0 0.0 0.00 0.01 0.01 53 1012.0
20260905202512 99 355 0.0 0.9 0.00 0.01 0.01 50 1012.1
20260905202016 100 342 0.0 0.9 0.00 0.01 0.01 49 1012.1
20260905201528 99 221 0.0 0.9 0.00 0.01 0.01 48 1012.1
20260905201015 98 327 0.0 0.9 0.00 0.01 0.01 51 1012.2
20260905200519 98 56 0.0 0.9 0.00 0.01 0.01 54 1012.3
20260905200006 97 77 0.0 0.9 0.00 0.01 0.01 53 1012.4
20260905195508 98 84 0.0 0.9 0.00 0.01 0.01 50 1012.4
20260905195006 98 112 0.0 0.9 0.00 0.01 0.01 51 1012.4
20260905194526 97 244 0.0 0.9 0.00 0.01 0.01 53 1012.3
20260905194009 97 103 0.0 2.6 0.00 0.01 0.01 53 1012.4
20260905193505 97 2 0.0 2.6 0.00 0.01 0.01 51 1012.6
20260905193025 98 130 0.9 2.6 0.00 0.01 0.01 49 1012.7
20260905192506 99 281 0.0 2.6 0.00 0.01 0.01 50 1012.8
20260905192004 98 281 0.0 0.9 0.00 0.01 0.01 51 1012.8
20260905191520 99 60 0.0 0.9 0.00 0.01 0.01 48 1013.0
20260905191003 99 297 0.0 0.9 0.00 0.01 0.01 50 1013.1
20260905190511 99 214 0.0 0.9 0.00 0.01 0.01 50 1013.1
20260905190018 99 341 0.0 0.9 0.00 0.01 0.01 53 1013.1
20260905185503 98 233 0.0 0.9 0.00 0.01 0.01 53 1013.2
20260905185011 99 21 0.0 0.9 0.00 0.01 0.01 52 1013.2
20260905184513 99 238 0.0 0.0 0.00 0.01 0.01 54 1013.2
20260905184015 98 212 0.0 0.0 0.00 0.01 0.01 53 1013.3
20260905183510 98 252 0.0 0.0 0.00 0.01 0.01 56 1013.4
20260905183008 98 252 0.0 0.0 0.00 0.01 0.01 56 1013.5
20260905182514 98 224 0.0 0.9 0.00 0.01 0.01 58 1013.5
20260905182006 97 219 0.0 0.9 0.00 0.01 0.01 60 1013.6
20260905181507 97 222 0.0 0.9 0.00 0.01 0.01 58 1013.7
20260905181012 97 285 0.0 0.9 0.00 0.01 0.01 58 1013.9
20260905180507 96 262 0.0 0.9 0.00 0.01 0.01 60 1013.9
20260905180027 97 220 0.0 0.0 0.00 0.02 0.01 59 1014.0
20260905175510 96 282 0.0 0.0 0.00 0.02 0.01 61 1014.1
20260905175005 95 247 0.0 0.9 0.00 0.03 0.01 63 1014.2
20260905174526 94 216 0.0 0.9 0.00 0.03 0.01 65 1014.3
20260905174009 93 197 0.0 2.6 0.00 0.05 0.01 63 1014.3
20260905173503 92 228 0.0 2.6 0.00 0.08 0.01 65 1014.4
20260905173024 92 122 0.0 0.0 0.00 0.12 0.01 63 1014.5
20260905172504 91 101 0.0 0.0 0.00 0.12 0.01 66 1014.6
20260905172016 91 58 0.0 0.0 0.00 0.12 0.01 68 1014.6
20260905171524 91 91 0.0 0.0 0.00 0.12 0.01 68 1014.6
20260905171009 90 210 0.0 0.0 0.00 0.12 0.01 69 1014.7
20260905170513 89 101 0.0 0.0 0.00 0.12 0.01 72 1014.8
20260905170018 88 63 0.0 0.0 0.00 0.12 0.01 73 1014.8
20260905165516 88 56 0.0 0.0 0.00 0.12 0.01 73 1014.9
20260905165013 88 177 0.0 0.0 0.00 0.12 0.01 74 1015.0
20260905164514 86 203 0.0 0.0 0.00 0.12 0.01 76 1015.0
20260905164013 86 185 0.0 0.0 0.00 0.12 0.01 76 1015.0
20260905163510 85 184 0.0 0.0 0.00 0.12 0.01 78 1015.0
20260905163011 85 184 0.0 0.0 0.00 0.12 0.01 78 1015.1
20260905162515 85 185 0.0 0.0 0.00 0.12 0.01 77 1015.0
20260905162010 85 185 0.0 0.0 0.00 0.12 0.01 77 1015.0
20260905161530 85 185 0.0 0.0 0.00 0.12 0.01 79 1015.0
20260905161010 85 185 0.0 0.0 0.00 0.12 0.01 80 1015.0
20260905160507 84 185 0.0 0.0 0.00 0.12 0.01 80 1015.0
20260905160039 84 185 0.0 0.0 0.00 0.12 0.01 83 1014.9
20260905155509 85 185 0.0 0.0 0.00 0.12 0.01 82 1015.0
20260905155004 84 185 0.0 0.0 0.00 0.12 0.01 81 1015.0
20260905154524 84 185 0.0 0.0 0.00 0.12 0.01 82 1015.0
20260905154007 84 185 0.0 0.0 0.00 0.12 0.01 83 1015.0
20260905153516 83 185 0.0 0.0 0.00 0.12 0.01 86 1015.0
20260905153035 83 163 0.0 0.0 0.00 0.12 0.01 87 1015.1
20260905152507 82 159 0.0 0.0 0.00 0.12 0.01 89 1015.0
20260905152014 82 158 0.0 0.0 0.00 0.12 0.01 90 1015.0
20260905151521 81 159 0.0 0.0 0.00 0.12 0.01 90 1015.0
20260905151008 81 159 0.0 0.0 0.00 0.12 0.01 92 1015.1
20260905150513 80 158 0.0 0.0 0.00 0.12 0.01 93 1015.0
20260905150018 80 160 0.0 0.0 0.00 0.12 0.01 94 1015.0
20260905145517 80 160 0.0 0.0 0.00 0.12 0.01 96 1014.9
20260905145012 80 158 0.0 0.0 0.00 0.12 0.01 97 1014.8
20260905144519 79 158 0.0 0.0 0.00 0.12 0.01 97 1014.8
20260905144014 79 158 0.0 0.0 0.00 0.12 0.01 97 1015.0
20260905143510 79 157 0.0 0.0 0.00 0.12 0.01 97 1014.8
20260905143042 79 107 0.0 0.0 0.00 0.12 0.01 98 1014.8
20260905142513 79 107 0.0 0.0 0.00 0.12 0.01 97 1014.7
20260905142012 78 107 0.0 0.0 0.00 0.12 0.01 97 1014.8
20260905141530 78 107 0.0 0.0 0.00 0.12 0.01 97 1014.9
20260905141015 78 107 0.0 0.0 0.00 0.12 0.01 97 1014.9
20260905140511 78 107 0.0 0.0 0.00 0.12 0.01 97 1014.9
20260905140031 78 107 0.0 0.0 0.01 0.12 0.01 97 1014.9
20260905135512 78 107 0.0 0.0 0.01 0.12 0.01 98 1014.8
20260905135017 77 107 0.0 0.0 0.01 0.12 0.01 98 1014.8
20260905134529 77 107 0.0 0.0 0.01 0.12 0.01 97 1014.7
20260905134010 77 107 0.0 0.0 0.01 0.12 0.01 98 1014.7
20260905133517 77 107 0.0 0.0 0.01 0.12 0.01 98 1014.7
20260905133026 76 107 0.0 0.0 0.01 0.12 0.01 98 1014.6
20260905132507 76 107 0.0 0.0 0.01 0.12 0.01 98 1014.7
20260905132017 75 107 0.0 0.0 0.01 0.12 0.01 97 1014.8
20260905131535 75 107 0.0 0.0 0.01 0.12 0.01 97 1014.7
20260905131016 74 107 0.0 0.0 0.01 0.12 0.01 97 1014.7
20260905130516 74 107 0.0 0.0 0.01 0.12 0.01 97 1014.6
20260905130019 74 96 0.0 0.0 0.00 0.11 0.00 97 1014.5
20260905125517 74 96 0.0 0.0 0.00 0.11 0.00 97 1014.5
20260905125014 73 96 0.0 0.0 0.00 0.11 0.00 97 1014.4
20260905124536 73 96 0.0 0.0 0.00 0.11 0.00 97 1014.4
20260905124019 73 96 0.0 0.0 0.00 0.11 0.00 97 1014.4
20260905123513 73 96 0.0 0.0 0.00 0.11 0.00 97 1014.3
20260905123032 73 96 0.0 0.0 0.00 0.11 0.00 97 1014.1
20260905122518 73 96 0.0 0.0 0.00 0.11 0.00 97 1014.1
20260905122010 73 96 0.0 0.0 0.00 0.11 0.00 97 1014.0
20260905121529 73 96 0.0 0.0 0.00 0.11 0.00 97 1013.9
20260905121018 73 96 0.0 0.0 0.00 0.11 0.00 97 1014.0
20260905120518 73 96 0.0 0.0 0.00 0.11 0.00 97 1013.9
20260905120029 73 96 0.0 0.0 0.00 0.11 0.00 97 1013.9
20260905115512 73 96 0.0 0.0 0.00 0.11 0.00 97 1013.8
20260905115018 73 96 0.0 0.0 0.00 0.11 0.00 97 1013.8
20260905114537 73 96 0.0 0.0 0.00 0.11 0.00 97 1013.8
20260905114010 73 96 0.0 0.0 0.00 0.11 0.00 96 1013.8
20260905113521 73 96 0.0 0.0 0.00 0.11 0.00 97 1013.8
20260905113035 73 96 0.0 0.0 0.00 0.11 0.00 97 1013.7
20260905112515 73 96 0.0 0.0 0.00 0.11 0.00 96 1013.7
20260905112014 73 96 0.0 0.0 0.00 0.11 0.00 96 1013.6
20260905111525 73 96 0.0 0.0 0.00 0.11 0.00 96 1013.6
20260905111015 73 96 0.0 0.0 0.00 0.11 0.00 96 1013.5
20260905110513 73 96 0.0 0.0 0.00 0.11 0.00 97 1013.5
20260905110023 73 96 0.0 0.0 0.00 0.11 0.00 97 1013.4
20260905105506 73 96 0.0 0.0 0.00 0.11 0.00 96 1013.3
20260905105004 73 96 0.0 0.0 0.00 0.11 0.00 96 1013.3
20260905104521 73 96 0.0 0.0 0.00 0.11 0.00 96 1013.3
20260905104003 73 96 0.0 0.0 0.00 0.11 0.00 96 1013.2
20260905103513 73 96 0.0 0.0 0.00 0.11 0.00 96 1013.2
20260905103023 73 96 0.0 0.0 0.00 0.11 0.00 96 1013.3
20260905102503 74 96 0.0 0.0 0.00 0.12 0.00 96 1013.3
20260905102016 74 96 0.0 0.0 0.00 0.12 0.00 96 1013.3
20260905101515 74 96 0.0 0.0 0.00 0.12 0.00 96 1013.2
20260905101013 74 96 0.0 0.0 0.00 0.12 0.00 96 1013.2
20260905100513 74 96 0.0 0.0 0.00 0.12 0.00 96 1013.2
20260905100020 74 96 0.0 0.0 0.00 0.12 0.00 96 1013.2
20260905095511 74 96 0.0 0.0 0.00 0.12 0.00 96 1013.2
20260905095007 74 96 0.0 0.0 0.00 0.12 0.00 96 1013.2
20260905094511 74 96 0.0 0.0 0.00 0.12 0.00 96 1013.2
20260905094013 74 96 0.0 0.0 0.00 0.12 0.00 96 1013.2
20260905093509 74 96 0.0 0.0 0.00 0.12 0.00 96 1013.2
20260905093035 74 96 0.0 0.0 0.00 0.12 0.00 96 1013.2
20260905092510 74 96 0.0 0.0 0.00 0.12 0.00 96 1013.2
20260905092006 74 96 0.0 0.0 0.00 0.12 0.00 96 1013.2
20260905091527 74 96 0.0 0.0 0.00 0.12 0.00 96 1013.3
20260905091009 74 96 0.0 0.0 0.00 0.12 0.00 96 1013.2
20260905090502 74 96 0.0 0.0 0.00 0.12 0.00 96 1013.1
20260905090023 74 96 0.0 0.0 0.00 0.12 0.00 96 1013.2
20260905085508 74 96 0.0 0.0 0.00 0.12 0.00 96 1013.2
20260905085019 74 96 0.0 0.0 0.00 0.12 0.00 96 1013.2
20260905084517 74 96 0.0 0.0 0.00 0.12 0.00 96 1013.1
20260905084003 74 96 0.0 0.0 0.00 0.12 0.00 96 1013.1
20260905083512 74 96 0.0 0.0 0.00 0.12 0.00 96 1013.1
20260905083015 74 96 0.0 0.0 0.00 0.12 0.00 96 1013.2
20260905082517 74 96 0.0 0.0 0.00 0.12 0.00 96 1013.1
20260905082012 74 96 0.0 0.0 0.00 0.12 0.00 96 1013.1
20260905081512 74 96 0.0 0.0 0.00 0.12 0.00 96 1013.0
20260905081016 74 96 0.0 0.0 0.00 0.12 0.00 96 1013.1
20260905080511 74 96 0.0 0.0 0.00 0.12 0.00 96 1013.0
20260905080009 74 96 0.0 0.0 0.00 0.12 0.00 96 1013.1
20260905075514 74 96 0.0 0.0 0.00 0.12 0.00 96 1013.1
20260905075007 74 96 0.0 0.0 0.00 0.12 0.00 96 1013.2
20260905074531 74 96 0.0 0.0 0.00 0.12 0.00 96 1013.2
20260905074018 74 96 0.0 0.0 0.00 0.12 0.00 96 1013.3
20260905073507 74 96 0.0 0.0 0.00 0.12 0.00 96 1013.3
20260905073028 74 96 0.0 0.0 0.00 0.12 0.00 96 1013.4
20260905072510 74 96 0.0 0.0 0.00 0.12 0.00 96 1013.4
20260905072006 74 96 0.0 0.0 0.00 0.12 0.00 95 1013.5
20260905071524 75 96 0.0 0.0 0.00 0.12 0.00 95 1013.5
20260905071009 75 96 0.0 0.0 0.00 0.12 0.00 95 1013.6
20260905070516 75 96 0.0 0.0 0.00 0.12 0.00 95 1013.7
20260905070033 75 96 0.0 0.0 0.00 0.12 0.00 95 1013.7
20260905065505 75 96 0.0 0.0 0.00 0.12 0.00 95 1013.7
20260905065016 75 96 0.0 0.0 0.00 0.12 0.00 95 1013.7
20260905064531 75 96 0.0 0.0 0.00 0.12 0.00 95 1013.8
20260905064004 75 96 0.0 0.0 0.00 0.12 0.00 96 1013.8
20260905063515 75 96 0.0 0.0 0.00 0.12 0.00 95 1013.8
20260905063016 75 96 0.0 0.0 0.00 0.12 0.00 96 1013.7
20260905062520 75 96 0.0 0.0 0.00 0.12 0.00 95 1013.7
20260905062012 75 96 0.0 0.0 0.00 0.12 0.00 95 1013.8
20260905061514 75 96 0.0 0.0 0.00 0.12 0.00 95 1013.8
20260905061017 75 96 0.0 0.0 0.00 0.12 0.00 95 1013.8
20260905060511 75 96 0.0 0.0 0.00 0.12 0.00 95 1013.8
20260905060037 75 96 0.0 0.0 0.00 0.12 0.00 95 1013.8
20260905055514 75 96 0.0 0.0 0.00 0.12 0.00 95 1013.7
20260905055008 75 96 0.0 0.0 0.00 0.12 0.00 95 1013.8
20260905054531 75 96 0.0 0.0 0.00 0.12 0.00 95 1013.8
20260905054014 75 96 0.0 0.0 0.00 0.12 0.00 95 1013.7
20260905053510 75 96 0.0 0.0 0.00 0.12 0.00 95 1013.6
20260905053034 75 96 0.0 0.0 0.00 0.12 0.00 95 1013.7
20260905052515 75 96 0.0 0.0 0.00 0.12 0.00 95 1013.8
20260905052017 75 96 0.0 0.0 0.00 0.12 0.00 94 1013.9
20260905051530 75 96 0.0 0.0 0.00 0.12 0.00 94 1013.8
20260905051009 75 96 0.0 0.0 0.00 0.12 0.00 94 1013.8
20260905050518 75 96 0.0 0.0 0.00 0.12 0.00 95 1013.9
20260905050028 76 96 0.0 0.0 0.00 0.12 0.00 95 1013.9
20260905045507 76 96 0.0 0.0 0.00 0.12 0.12 95 1013.9
20260905045016 76 96 0.0 0.0 0.00 0.12 0.12 95 1013.9
20260905044525 75 96 0.0 0.0 0.00 0.12 0.12 95 1013.9
20260905044017 75 96 0.0 0.0 0.00 0.12 0.12 95 1013.9
20260905043514 75 96 0.0 0.0 0.00 0.12 0.12 95 1013.8
20260905043020 75 96 0.0 0.0 0.00 0.12 0.12 94 1013.8
20260905042516 75 96 0.0 0.0 0.00 0.12 0.12 94 1013.8
20260905042013 76 96 0.0 0.0 0.00 0.12 0.12 94 1013.9
20260905041516 76 96 0.0 0.0 0.00 0.12 0.12 94 1013.8
20260905041017 76 96 0.0 0.0 0.00 0.12 0.12 94 1013.9
20260905040511 76 96 0.0 0.0 0.00 0.12 0.12 94 1013.9
20260905040033 76 96 0.0 0.0 0.00 0.12 0.12 94 1013.9
20260905035514 76 96 0.0 0.0 0.00 0.12 0.12 94 1014.0
20260905035012 76 96 0.0 0.0 0.00 0.12 0.12 94 1013.9
20260905034532 76 96 0.0 0.0 0.00 0.12 0.12 94 1014.0
20260905034015 76 96 0.0 0.0 0.00 0.12 0.12 94 1014.0
20260905033516 76 96 0.0 0.0 0.00 0.12 0.12 94 1014.0
20260905033034 76 96 0.0 0.0 0.00 0.12 0.12 94 1014.0
20260905032512 76 96 0.0 0.0 0.00 0.12 0.12 94 1014.0
20260905032017 77 96 0.0 0.0 0.00 0.12 0.12 94 1014.0
20260905031531 77 96 0.0 0.0 0.00 0.12 0.12 94 1014.0
20260905031010 77 96 0.0 0.0 0.00 0.12 0.12 94 1014.0
20260905030517 77 96 0.0 0.0 0.00 0.12 0.12 94 1014.1
20260905030036 77 96 0.0 0.0 0.00 0.12 0.12 93 1014.0
20260905025517 77 96 0.0 0.0 0.00 0.12 0.12 93 1014.0
20260905025020 77 96 0.0 0.0 0.00 0.12 0.12 93 1014.0
20260905024531 77 96 0.0 0.0 0.00 0.12 0.12 93 1014.0
20260905024014 77 96 0.0 0.0 0.00 0.12 0.12 93 1014.0
20260905023514 77 96 0.0 0.0 0.00 0.12 0.12 93 1013.9
20260905023023 78 96 0.0 0.0 0.00 0.12 0.12 93 1013.9
20260905022517 78 96 0.0 0.0 0.00 0.12 0.12 93 1013.9
20260905022014 78 96 0.0 0.0 0.00 0.12 0.12 93 1013.8
20260905021532 78 96 0.0 0.0 0.00 0.12 0.12 93 1013.7
20260905021015 78 96 0.0 0.0 0.00 0.12 0.12 93 1013.7
20260905020515 78 96 0.0 0.0 0.00 0.12 0.12 93 1013.6
20260905020010 78 96 0.0 0.0 0.00 0.12 0.12 93 1013.5
20260905015503 78 96 0.0 0.0 0.00 0.12 0.12 92 1013.3
20260905015007 78 96 0.0 0.0 0.00 0.12 0.12 92 1013.4
20260905014507 78 96 0.0 0.0 0.00 0.12 0.12 92 1013.3
20260905014004 78 96 0.0 0.0 0.00 0.12 0.12 92 1013.4
20260905013502 78 83 0.0 0.0 0.00 0.12 0.12 91 1013.3
20260905013010 79 82 0.0 0.0 0.00 0.12 0.12 91 1013.2
20260905012504 79 82 0.0 0.0 0.00 0.12 0.12 91 1013.1
20260905012004 79 82 0.0 0.0 0.00 0.12 0.12 90 1013.1
20260905011507 79 82 0.0 0.0 0.00 0.12 0.12 90 1013.0
20260905011006 79 82 0.0 0.0 0.00 0.12 0.12 90 1013.0
20260905010506 80 82 0.0 0.0 0.00 0.12 0.12 89 1013.0
20260905010009 80 83 0.0 0.0 0.00 0.12 0.12 89 1012.9
20260905005505 80 82 0.0 0.0 0.00 0.12 0.12 89 1012.9
20260905005003 81 82 0.0 0.0 0.00 0.12 0.12 89 1013.0
20260905004510 81 82 0.0 0.0 0.00 0.12 0.12 89 1012.9
20260905004003 81 82 0.0 0.0 0.00 0.12 0.12 88 1012.8
20260905003506 82 82 0.0 0.0 0.00 0.12 0.12 88 1012.7
20260905003012 82 82 0.0 0.0 0.00 0.12 0.12 88 1012.7
20260905002504 82 83 0.0 0.0 0.00 0.12 0.12 88 1012.7
20260905002008 82 82 0.0 0.0 0.00 0.12 0.12 87 1012.5
20260905001512 82 82 0.0 0.0 0.00 0.12 0.12 88 1012.5
20260905001004 82 82 0.0 0.0 0.00 0.12 0.12 87 1012.6
20260905000509 82 82 0.0 0.0 0.00 0.12 0.12 88 1012.5
20260905000014 82 82 0.0 0.0 0.00 0.12 0.12 88 1012.6
20260904235505 82 82 0.0 0.0 0.00 0.12 0.12 89 1012.7
20260904235003 82 82 0.0 0.0 0.00 0.12 0.12 88 1012.6
20260904234513 82 83 0.0 0.0 0.00 0.12 0.12 88 1012.6
20260904234006 82 83 0.0 0.0 0.00 0.12 0.12 88 1012.6
20260904233503 82 218 0.0 0.0 0.00 0.12 0.12 88 1012.6
20260904233011 83 218 0.0 0.0 0.00 0.12 0.12 86 1012.6
20260904232509 83 218 0.0 0.0 0.00 0.12 0.12 87 1012.6
20260904232007 83 218 0.0 0.0 0.00 0.12 0.12 86 1012.7
20260904231515 83 218 0.0 0.0 0.00 0.12 0.12 85 1012.6
20260904231007 84 218 0.0 0.0 0.00 0.12 0.12 85 1012.5
20260904230507 84 218 0.0 0.0 0.00 0.12 0.12 84 1012.4
20260904230009 85 218 0.0 0.0 0.00 0.12 0.12 82 1012.7
20260904225506 85 218 0.0 0.0 0.00 0.12 0.12 81 1012.5
20260904225006 86 218 0.0 0.0 0.00 0.12 0.12 80 1012.5
20260904224505 86 218 0.0 0.0 0.00 0.12 0.12 79 1012.6
20260904224008 86 218 0.0 0.0 0.00 0.12 0.12 78 1012.7
20260904223503 87 218 0.0 0.0 0.00 0.12 0.12 78 1012.7
20260904223023 87 218 0.0 0.0 0.00 0.12 0.12 77 1012.7
20260904222507 87 218 0.0 0.0 0.00 0.12 0.12 78 1012.9
20260904222004 87 218 0.0 0.0 0.00 0.12 0.12 76 1012.9
20260904221518 88 218 0.0 0.0 0.00 0.12 0.12 75 1012.9
20260904221004 88 218 0.0 0.0 0.00 0.12 0.12 74 1012.9
20260904220504 88 218 0.0 0.9 0.00 0.12 0.12 76 1013.0
20260904220020 88 218 0.0 0.9 0.00 0.12 0.12 75 1013.0
20260904215505 88 233 0.0 0.0 0.00 0.12 0.12 77 1012.9
20260904215009 87 242 0.0 0.0 0.00 0.12 0.12 76 1013.0
20260904214518 87 241 0.0 0.0 0.00 0.12 0.12 77 1013.0
20260904214003 87 241 0.0 0.0 0.00 0.12 0.12 80 1013.0
20260904213508 87 238 0.0 0.0 0.00 0.12 0.12 79 1013.0
20260904213024 87 238 0.0 0.0 0.00 0.12 0.12 78 1013.1
20260904212510 87 238 0.0 0.0 0.00 0.12 0.12 79 1013.1